Theta_e
342 342 336 332 332 335 336 337 337 337 336 334 320 319 319 321 322 322 319 317 318 318 317 316 329 338 335 334 338 335 335 335
344 344 343 338 334 334 337 337 337 337 336 336 326 320 320 321 323 322 319 316 316 316 314 317 330 337 336 336 336 335 335 334
347 346 346 341 339 335 335 337 336 337 337 336 333 321 320 321 323 324 320 316 315 314 313 317 328 336 335 333 334 336 336 334
343 348 349 346 340 336 335 336 336 336 336 336 336 324 321 320 322 325 321 317 314 314 314 316 325 334 333 330 332 336 337 336
336 333 340 344 338 337 336 335 335 335 335 337 336 329 322 322 322 326 323 319 314 315 315 315 320 327 332 330 330 334 333 334
333 330 334 337 337 337 335 335 335 335 334 336 337 332 323 322 322 324 324 318 313 316 316 315 316 315 328 328 329 329 329 329
334 335 338 338 338 336 334 335 335 335 335 335 337 335 326 322 322 322 323 320 314 316 319 316 315 314 319 328 328 328 328 328
326 331 337 339 339 335 335 332 334 336 336 334 337 337 329 323 322 322 323 321 314 316 319 314 315 315 330 327 327 327 329 326
325 326 330 335 342 338 336 334 332 337 337 335 335 337 334 325 323 322 322 321 316 316 321 316 320 319 329 328 328 328 327 326
324 326 327 334 338 339 338 336 335 338 340 337 336 338 335 328 325 324 323 322 319 315 321 319 325 329 329 326 328 328 327 326
314 322 326 331 337 339 339 337 336 337 341 341 339 339 336 333 327 327 326 326 321 315 321 320 328 332 333 330 327 328 327 326
314 315 319 329 336 338 338 340 338 336 341 342 342 341 337 334 330 330 329 330 322 316 319 323 327 332 333 331 329 329 327 325
315 315 315 319 335 337 337 338 336 337 340 342 343 342 339 336 334 333 334 333 325 319 318 323 332 333 333 332 330 330 328 327
313 314 315 315 325 336 335 335 336 337 334 342 343 343 341 339 337 334 336 335 330 323 322 329 334 333 333 332 331 330 329 329
308 311 313 315 316 322 335 331 336 338 337 343 343 342 342 340 339 336 337 337 334 327 325 330 330 332 332 331 331 330 330 330
304 306 311 314 316 318 323 333 336 336 337 341 345 341 342 341 341 339 338 338 336 332 326 328 329 332 332 330 328 326 329 330
301 303 308 312 315 317 320 325 327 335 337 337 342 343 339 342 341 340 339 338 336 334 329 329 331 330 331 330 329 326 324 326
299 301 303 310 316 317 317 319 323 332 333 337 338 341 339 342 341 340 339 338 337 335 331 328 329 326 328 327 330 327 324 323
297 299 300 302 309 319 317 317 323 331 333 333 336 336 337 342 341 341 339 337 337 336 333 329 327 328 327 326 326 327 323 323
295 296 297 298 301 317 318 319 322 328 329 332 329 325 335 339 337 339 338 337 336 337 335 331 327 329 326 326 324 324 324 323
Wind_Speed
20 21 23 24 22 23 23 23 23 22 20 19 19 19 20 19 17 15 14 13 13 15 17 23 27 29 24 18 15 15 14 11
23 24 23 25 27 25 25 25 24 25 23 22 21 22 21 21 19 17 16 15 14 16 19 25 29 28 23 18 15 16 14 11
23 26 27 25 30 30 29 27 26 27 27 25 25 25 25 24 22 19 17 16 16 17 21 26 30 28 25 18 13 15 12 13
29 29 28 27 30 34 33 32 32 32 32 31 30 29 28 27 25 22 19 18 17 19 22 27 31 30 26 20 13 15 16 12
26 26 33 37 35 39 37 37 37 37 36 35 34 33 32 31 29 26 24 22 22 23 25 27 30 33 28 22 14 18 13 11
32 29 29 31 33 40 40 40 40 41 41 40 39 39 38 37 35 32 29 27 25 25 26 27 29 31 31 23 17 13 8 8
29 33 35 33 32 36 39 41 43 43 44 44 44 44 43 41 39 36 33 30 29 28 27 27 28 29 32 23 23 12 10 11
28 27 34 41 39 35 40 40 43 45 46 47 47 47 46 46 42 40 36 34 31 30 29 29 29 32 29 25 25 17 13 14
43 36 32 42 45 41 40 42 42 44 48 48 49 51 50 49 45 42 39 36 33 32 31 30 30 32 29 24 23 15 16 16
40 44 35 39 45 46 42 43 43 41 45 49 49 52 52 51 48 45 41 40 37 36 35 34 31 30 28 26 27 17 18 20
26 26 36 40 46 49 49 46 46 44 44 49 50 53 55 54 51 48 44 43 41 40 39 38 35 32 29 28 31 24 23 22
25 26 21 25 46 50 51 49 48 46 44 51 51 54 57 56 53 51 48 44 45 44 42 41 37 36 31 29 29 26 25 24
29 29 28 27 33 49 50 49 44 47 45 48 55 54 60 59 57 54 50 48 47 47 45 43 39 37 33 27 26 23 24 22
37 33 29 29 22 37 51 48 53 51 48 49 56 56 61 61 60 57 55 51 49 48 49 47 42 42 40 36 31 26 24 23
39 37 35 33 27 28 34 54 51 51 48 53 58 57 61 64 62 61 60 56 53 50 53 52 51 47 45 35 23 17 30 27
39 36 29 33 36 28 35 26 49 49 51 55 59 58 63 66 65 62 64 62 57 54 57 56 52 54 48 43 35 26 29 21
36 32 28 23 36 35 38 40 38 43 53 56 59 63 62 67 67 64 64 65 60 57 58 58 56 54 56 52 41 27 34 28
37 33 31 22 21 34 34 36 41 44 48 54 56 58 64 66 66 67 67 67 63 59 59 62 60 56 55 56 52 42 39 37
42 37 36 31 23 22 30 33 35 33 40 53 45 51 65 65 66 64 68 67 65 61 61 61 60 60 59 58 56 50 42 39
50 47 43 39 36 12 15 26 30 33 30 49 64 57 45 52 53 57 64 65 63 63 62 62 62 64 59 58 58 56 47 44
Wind_Direction
226 233 222 208 208 205 199 198 200 204 205 205 202 196 187 184 180 179 168 164 165 160 157 150 150 146 143 148 140 142 150 165
228 228 227 221 212 208 206 202 202 206 209 208 208 201 195 188 187 183 175 170 170 165 161 155 155 153 147 137 139 145 160 168
219 224 229 228 221 213 206 207 206 207 211 210 209 204 199 194 193 187 182 175 173 170 165 161 160 155 150 136 130 171 183 162
236 234 234 231 229 219 211 204 206 208 209 210 209 207 203 200 195 191 186 182 177 173 170 165 164 161 155 138 124 146 168 164
249 254 252 248 234 219 213 210 206 207 209 210 209 206 203 202 197 193 190 187 181 176 174 172 169 168 163 151 127 146 164 175
248 250 250 247 230 221 216 214 210 208 208 208 208 205 204 204 201 197 195 190 187 180 178 177 173 171 173 170 158 158 178 195
250 259 251 243 234 227 220 217 215 211 209 207 207 207 204 206 203 201 198 195 191 184 180 179 176 170 175 179 170 186 197 222
280 252 252 248 237 234 227 223 218 214 212 210 207 210 205 208 205 204 201 198 194 188 182 180 175 167 168 177 165 199 211 219
265 266 250 249 237 231 228 228 222 215 213 213 208 209 207 209 207 206 202 201 196 190 184 180 176 172 175 174 177 195 192 214
268 258 246 243 238 235 235 227 226 217 214 214 209 207 209 210 208 209 204 202 198 193 186 183 180 181 184 188 178 195 207 218
315 283 259 241 237 236 231 233 230 220 212 215 210 207 209 210 208 210 208 203 199 197 189 188 185 185 192 195 188 200 211 216
303 295 299 282 245 228 229 229 229 223 211 214 213 206 208 209 209 209 209 203 199 199 193 190 190 188 193 195 193 201 211 218
327 315 297 289 256 233 229 227 222 225 214 215 216 209 207 209 207 207 209 203 202 201 194 192 191 190 190 193 193 204 210 220
323 322 320 297 266 249 236 231 225 223 213 215 217 213 210 208 206 206 209 204 206 200 196 190 193 192 191 183 186 196 211 216
329 320 317 316 287 275 243 235 224 221 215 214 219 216 212 209 208 207 208 208 206 202 200 198 195 195 198 186 174 192 195 210
338 330 315 302 297 277 264 257 217 221 223 212 212 216 214 210 208 208 208 210 207 206 202 204 201 193 194 199 196 196 184 192
345 345 336 301 298 276 274 268 288 222 222 220 215 212 212 210 207 209 210 211 210 210 205 205 207 203 196 197 204 205 209 197
360 357 359 337 308 274 259 268 288 244 234 225 218 217 215 210 205 209 212 212 213 211 211 209 209 211 209 205 204 205 206 209
10 8 9 6 346 276 252 269 271 256 245 236 218 226 204 205 205 205 212 216 215 215 214 213 213 213 211 211 213 213 218 216
15 13 14 13 11 344 256 273 277 259 267 246 239 242 231 212 206 210 215 218 216 216 216 216 215 217 216 216 218 217 217 220